EW9945 Weather Reports


time (UTC)temp
C
wind
direction
speed
KPH
gust
KPH
rain 1hr
cm
rain 24hr
cm
rain mn
cm
humidity
%
barometer
mb
20260901110044 21 146 0.0 1.6 0.00 0.05 0.00 91 1014.4
20260901104543 21 146 0.0 3.2 0.00 0.05 0.00 92 1014.5
20260901103042 21 146 0.0 4.8 0.00 0.05 0.00 92 1014.5
20260901100042 21 146 0.0 6.4 0.00 0.05 0.00 92 1014.4
20260901094542 21 146 0.0 3.2 0.00 0.05 0.00 92 1014.7
20260901093038 20 145 0.0 11.3 0.00 0.05 0.00 93 1014.6
20260901090038 20 146 0.0 0.0 0.00 0.05 0.05 93 1014.8
20260901084540 20 146 0.0 0.0 0.00 0.05 0.05 93 1014.7
20260901083034 20 145 0.0 0.0 0.00 0.05 0.05 93 1014.9
20260901080032 20 146 0.0 0.0 0.00 0.05 0.05 93 1015.1
20260901074531 20 146 0.0 0.0 0.00 0.05 0.05 93 1015.1
20260901073030 20 146 0.0 4.8 0.00 0.05 0.05 93 1015.2
20260901070027 20 146 0.0 0.0 0.00 0.05 0.05 93 1015.6
20260901064525 20 146 0.0 0.0 0.00 0.05 0.05 92 1015.8
20260901063027 20 145 0.0 0.0 0.00 0.05 0.05 92 1015.8
20260901060025 20 146 0.0 0.0 0.00 0.05 0.05 92 1016.0
20260901054524 20 146 0.0 0.0 0.00 0.05 0.05 92 1016.0
20260901053024 20 145 0.0 0.0 0.00 0.05 0.05 92 1016.1
20260901050024 20 146 0.0 0.0 0.03 0.05 0.05 92 1016.3
20260901044536 20 146 0.0 0.0 0.03 0.05 0.05 92 1016.3
20260901043020 20 146 0.0 0.0 0.03 0.05 0.05 92 1016.1
20260901040018 20 146 0.0 0.0 0.00 0.03 0.03 92 1016.2
20260901034530 20 146 0.0 0.0 0.00 0.03 0.03 92 1016.5
20260901033038 20 146 0.0 0.0 0.00 0.03 0.03 92 1016.6
20260901030026 20 145 0.0 0.0 0.00 0.03 0.03 91 1016.6
20260901024522 20 146 0.0 0.0 0.00 0.03 0.03 91 1016.9
20260901023018 21 146 0.0 0.0 0.00 0.03 0.03 91 1016.9
20260901020018 21 146 0.0 0.0 0.00 0.03 0.03 91 1017.0
20260901014517 21 146 0.0 0.0 0.00 0.03 0.03 91 1017.2
20260901013017 21 146 0.0 0.0 0.00 0.03 0.03 90 1017.2
20260901010019 21 145 0.0 0.0 0.00 0.03 0.03 90 1017.0
20260901004516 21 146 0.0 0.0 0.00 0.03 0.03 90 1016.9
20260901003032 21 146 0.0 0.0 0.00 0.03 0.03 89 1016.9
20260901000029 21 146 0.0 0.0 0.00 0.03 0.03 89 1016.4
20260831234515 21 146 0.0 3.2 0.00 0.03 0.03 88 1016.3
20260831233013 21 145 0.0 1.6 0.00 0.03 0.03 87 1016.3
20260831230016 21 145 0.0 3.2 0.00 0.03 0.03 87 1016.5
20260831224512 21 145 0.0 6.4 0.00 0.03 0.03 87 1016.5
20260831223011 21 145 0.0 4.8 0.00 0.03 0.03 87 1016.6
20260831220020 22 145 1.6 8.0 0.00 0.03 0.03 86 1016.8
20260831214508 22 154 0.0 6.4 0.00 0.03 0.03 85 1017.0
20260831213009 22 157 0.0 3.2 0.00 0.03 0.03 85 1017.0
20260831210003 22 134 0.0 4.8 0.00 0.03 0.03 86 1017.2
20260831204502 22 133 0.0 9.7 0.00 0.03 0.03 86 1017.3
20260831203106 21 146 0.0 0.0 0.00 0.03 0.03 87 1017.4
20260831200108 21 109 3.2 14.5 0.00 0.03 0.03 86 1017.5
20260831194611 21 118 1.6 16.1 0.00 0.03 0.03 87 1017.5
20260831193054 21 125 0.0 17.7 0.00 0.03 0.03 87 1017.7
20260831190104 20 197 3.2 11.3 0.00 0.03 0.03 88 1017.9
20260831184550 20 153 1.6 11.3 0.00 0.03 0.03 88 1017.9
20260831183045 20 118 0.0 14.5 0.00 0.03 0.03 89 1018.1
20260831180054 20 172 0.0 8.0 0.00 0.03 0.03 91 1018.4
20260831174541 19 123 0.0 8.0 0.00 0.03 0.03 92 1018.5
20260831173038 18 127 0.0 9.7 0.00 0.03 0.03 92 1018.7
20260831170034 18 133 0.0 3.2 0.00 0.03 0.03 92 1019.2
20260831164537 18 133 0.0 8.0 0.00 0.03 0.03 92 1019.2
20260831163033 18 138 0.0 1.6 0.00 0.03 0.03 92 1019.4
20260831160032 18 138 0.0 4.8 0.00 0.03 0.03 92 1019.5
20260831154529 18 138 0.0 4.8 0.00 0.03 0.03 92 1019.5
20260831153029 18 122 0.0 6.4 0.03 0.03 0.03 91 1019.5
20260831150030 18 118 0.0 3.2 0.03 0.03 0.03 91 1019.3
20260831144527 18 118 0.0 8.0 0.03 0.03 0.03 91 1019.3
20260831143027 18 111 0.0 4.8 0.00 0.00 0.00 91 1019.4
20260831140027 18 57 0.0 0.0 0.00 0.00 0.00 93 1019.1
20260831134522 18 57 3.2 8.0 0.00 0.00 0.00 93 1019.0
20260831133024 17 301 0.0 0.0 0.00 0.00 0.00 93 1019.1
20260831130016 17 301 0.0 0.0 0.00 0.00 0.00 93 1019.5
20260831124518 17 301 0.0 0.0 0.00 0.00 0.00 93 1019.5
20260831123015 17 301 0.0 0.0 0.00 0.00 0.00 93 1019.5
20260831120015 17 301 0.0 0.0 0.00 0.00 0.00 93 1019.6
20260831114514 17 300 0.0 0.0 0.00 0.00 0.00 93 1019.4
20260831113013 17 300 0.0 0.0 0.00 0.00 0.00 93 1019.4